Galveston, TX

8:37 AM CST on February 22, 2017 (GMT -0600)
Scholes International At Galveston

Weather History for KGLS - March, 2013

Change the Weather History Date:

Saturday, March 9, 2013

  Actual Average Record
Temperature  
Mean Temperature 69 °F 62 °F  
Max Temperature 74 °F 69 °F 84 °F (2006)
Min Temperature 63 °F 55 °F 31 °F (1932)
Degree Days  
Heating Degree Days 0 4  
Month to date heating degree days 46 44  
Since 1 July heating degree days 656 932  
Cooling Degree Days 4 1  
Month to date cooling degree days 7 9  
Year to date cooling degree days 43 26  
Growing Degree Days 17 (Base 50)    
Moisture  
Dew Point 63 °F    
Average Humidity 83    
Maximum Humidity 93    
Minimum Humidity 73    
Precipitation  
Precipitation T in 0.11 in 2.98 in (2016)
Month to date precipitation T 1.04  
Year to date precipitation 9.42 7.81  
Snow  
Snow 0.00 in - - ()
Month to date snowfall 0.0  
Since 1 July snowfall 0.0 0.0  
Snow Depth 0.00 in    
Sea Level Pressure  
Sea Level Pressure 29.92 in    
Wind  
Wind Speed 14 mph (SE)    
Max Wind Speed 22 mph    
Max Gust Speed 28 mph    
Visibility 10 miles    
Events      
T = Trace of Precipitation, MM = Missing Value Source: NWS Daily Summary

Daily Weather History Graph

Daily Weather History Graph

Search for Another Location

Airport or City:

Trip Planner

Search our weather history database for the weather conditions in past years. The results will help you decide how hot, cold, wet, or windy it might be!

Date:

Astronomy

Mar. 09, 2013 Rise Set
Actual Time 6:35 AM CST 6:24 PM CST
Civil Twilight 6:12 AM CST 6:48 PM CST
Nautical Twilight 5:44 AM CST 7:15 PM CST
Astronomical Twilight 5:17 AM CST 7:43 PM CST
Moon 4:52 AM CST (3/9) 4:33 PM CST (3/9)
Length of Visible Light 12h 36m
Length of Day
11h 48m
Waning Crescent, 5% of the Moon is Illuminated
Mar 9
Waning Crescent
Mar 11
New
Mar 19
First Quarter
Mar 27
Full
Apr 2
Last Quarter

Hourly Weather History & Observations

Time (CST) Temp. Dew Point Humidity Pressure Visibility Wind Dir Wind Speed Gust Speed Precip Events Conditions
12:52 AM 63.0 °F 61.0 °F 93% 30.08 in 10.0 mi SE 9.2 mph - N/A   Clear
1:52 AM 64.0 °F 61.0 °F 90% 30.06 in 10.0 mi ESE 9.2 mph - N/A   Clear
2:52 AM 64.0 °F 61.0 °F 90% 30.03 in 10.0 mi ESE 10.4 mph - N/A   Scattered Clouds
3:52 AM 64.0 °F 62.1 °F 93% 30.01 in 10.0 mi SE 12.7 mph - N/A   Mostly Cloudy
4:52 AM 64.0 °F 62.1 °F 93% 30.01 in 10.0 mi SE 10.4 mph - N/A   Clear
5:52 AM 64.9 °F 62.1 °F 90% 30.01 in 10.0 mi SE 10.4 mph - N/A   Overcast
6:52 AM 64.9 °F 62.1 °F 90% 29.99 in 10.0 mi SE 15.0 mph - N/A   Partly Cloudy
7:52 AM 66.0 °F 62.1 °F 87% 29.99 in 10.0 mi SE 18.4 mph - 0.00 in   Mostly Cloudy
8:52 AM 66.9 °F 62.1 °F 84% 30.00 in 10.0 mi SSE 15.0 mph - N/A   Partly Cloudy
9:52 AM 68.0 °F 63.0 °F 84% 30.02 in 10.0 mi SSE 11.5 mph - N/A   Clear
10:52 AM 70.0 °F 63.0 °F 78% 30.01 in 10.0 mi SSE 12.7 mph - N/A   Clear
11:52 AM 71.1 °F 63.0 °F 75% 30.00 in 10.0 mi SSE 13.8 mph - N/A   Scattered Clouds
12:52 PM 68.0 °F 62.1 °F 81% 29.96 in 10.0 mi SE 12.7 mph - N/A   Scattered Clouds
1:52 PM 71.1 °F 63.0 °F 75% 29.91 in 10.0 mi SE 18.4 mph - N/A   Clear
2:52 PM 71.1 °F 63.0 °F 75% 29.88 in 10.0 mi SE 18.4 mph 25.3 mph N/A   Clear
3:52 PM 69.1 °F 62.1 °F 78% 29.88 in 10.0 mi SSE 15.0 mph - N/A   Clear
4:52 PM 68.0 °F 62.1 °F 81% 29.86 in 10.0 mi SE 15.0 mph - N/A   Clear
5:52 PM 68.0 °F 62.1 °F 81% 29.84 in 10.0 mi SE 18.4 mph - N/A   Clear
6:52 PM 66.0 °F 62.1 °F 87% 29.84 in 10.0 mi SE 15.0 mph - N/A   Partly Cloudy
7:52 PM 66.0 °F 63.0 °F 90% 29.85 in 10.0 mi SE 15.0 mph - N/A   Partly Cloudy
8:10 PM 66.2 °F 62.6 °F 88% 29.85 in 10.0 mi SE 16.1 mph - N/A   Mostly Cloudy
8:52 PM 64.9 °F 63.0 °F 93% 29.84 in 10.0 mi SE 12.7 mph - N/A   Overcast
9:52 PM 66.0 °F 63.0 °F 90% 29.82 in 9.0 mi SE 16.1 mph - N/A   Overcast
10:52 PM 66.0 °F 64.0 °F 93% 29.80 in 9.0 mi SE 13.8 mph - N/A   Overcast
11:03 PM 64.4 °F 64.4 °F 100% 29.80 in 9.0 mi SE 13.8 mph - N/A   Overcast
11:42 PM 66.2 °F 64.4 °F 94% 29.81 in 9.0 mi SE 11.5 mph - N/A   Overcast
11:52 PM 66.0 °F 64.0 °F 93% 29.81 in 9.0 mi SE 10.4 mph - N/A   Overcast